| time (UTC) | temp F | wind direction | speed MPH | gust MPH | rain 1hr in | rain 24hr in | rain mn in | humidity % | barometer mb |
| 20260506112542 | 63 | 187 | 4.0 | 9.0 | 0.00 | 0.56 | 0.47 | 75 | 1005.9 |
| 20260506112043 | 63 | 220 | 6.0 | 9.0 | 0.00 | 0.56 | 0.47 | 76 | 1005.9 |
| 20260506111540 | 62 | 180 | 4.0 | 9.0 | 0.00 | 0.56 | 0.47 | 76 | 1005.9 |
| 20260506111040 | 62 | 209 | 4.0 | 10.0 | 0.00 | 0.56 | 0.47 | 76 | 1005.9 |
| 20260506110540 | 62 | 182 | 4.0 | 9.0 | 0.00 | 0.56 | 0.47 | 77 | 1005.8 |
| 20260506110042 | 62 | 207 | 4.0 | 8.0 | 0.00 | 0.56 | 0.47 | 76 | 1005.9 |
| 20260506105542 | 62 | 232 | 6.0 | 11.0 | 0.00 | 0.56 | 0.47 | 73 | 1005.9 |
| 20260506105043 | 62 | 198 | 5.0 | 11.0 | 0.00 | 0.56 | 0.47 | 73 | 1005.9 |
| 20260506104546 | 62 | 215 | 4.0 | 11.0 | 0.00 | 0.56 | 0.47 | 75 | 1005.9 |
| 20260506104040 | 62 | 218 | 7.0 | 10.0 | 0.00 | 0.56 | 0.47 | 74 | 1005.9 |
| 20260506103539 | 62 | 221 | 6.0 | 11.0 | 0.00 | 0.56 | 0.47 | 74 | 1005.9 |
| 20260506103041 | 62 | 242 | 6.0 | 11.0 | 0.00 | 0.56 | 0.47 | 75 | 1006.0 |
| 20260506102542 | 62 | 240 | 7.0 | 12.0 | 0.00 | 0.56 | 0.47 | 75 | 1006.0 |
| 20260506102038 | 62 | 258 | 7.0 | 12.0 | 0.00 | 0.56 | 0.47 | 75 | 1005.9 |
| 20260506101537 | 62 | 221 | 6.0 | 11.0 | 0.00 | 0.56 | 0.47 | 76 | 1006.0 |
| 20260506101037 | 62 | 208 | 6.0 | 12.0 | 0.00 | 0.56 | 0.47 | 78 | 1006.0 |
| 20260506100537 | 62 | 240 | 7.0 | 12.0 | 0.00 | 0.56 | 0.47 | 76 | 1005.9 |
| 20260506100037 | 62 | 243 | 6.0 | 10.0 | 0.00 | 0.56 | 0.47 | 77 | 1006.0 |
| 20260506095537 | 61 | 202 | 5.0 | 10.0 | 0.00 | 0.56 | 0.47 | 77 | 1006.0 |
| 20260506095036 | 61 | 178 | 5.0 | 11.0 | 0.00 | 0.56 | 0.47 | 76 | 1006.1 |
| 20260506094536 | 61 | 223 | 6.0 | 12.0 | 0.00 | 0.56 | 0.47 | 77 | 1006.0 |
| 20260506094036 | 61 | 173 | 8.0 | 14.0 | 0.00 | 0.56 | 0.47 | 78 | 1006.0 |
| 20260506093535 | 61 | 252 | 7.0 | 14.0 | 0.00 | 0.56 | 0.47 | 78 | 1006.1 |
| 20260506093039 | 61 | 192 | 6.0 | 15.0 | 0.00 | 0.56 | 0.47 | 79 | 1006.0 |
| 20260506092535 | 61 | 227 | 5.0 | 12.0 | 0.00 | 0.56 | 0.47 | 81 | 1006.0 |
| 20260506092035 | 61 | 235 | 5.0 | 11.0 | 0.00 | 0.56 | 0.47 | 79 | 1006.0 |
| 20260506091535 | 61 | 207 | 6.0 | 12.0 | 0.00 | 0.56 | 0.47 | 79 | 1005.9 |
| 20260506091035 | 61 | 223 | 6.0 | 12.0 | 0.00 | 0.56 | 0.47 | 81 | 1005.8 |
| 20260506090533 | 61 | 232 | 7.0 | 11.0 | 0.00 | 0.56 | 0.47 | 81 | 1005.9 |
| 20260506090034 | 60 | 205 | 7.0 | 11.0 | 0.00 | 0.56 | 0.47 | 82 | 1005.9 |
| 20260506085533 | 60 | 243 | 8.0 | 12.0 | 0.00 | 0.56 | 0.47 | 81 | 1005.9 |
| 20260506085034 | 60 | 217 | 8.0 | 12.0 | 0.00 | 0.56 | 0.47 | 82 | 1005.8 |
| 20260506084537 | 60 | 194 | 6.0 | 14.0 | 0.00 | 0.56 | 0.47 | 83 | 1005.9 |
| 20260506084036 | 60 | 244 | 8.0 | 14.0 | 0.00 | 0.56 | 0.47 | 83 | 1005.8 |
| 20260506083534 | 60 | 188 | 7.0 | 12.0 | 0.00 | 0.56 | 0.47 | 84 | 1005.7 |
| 20260506083036 | 60 | 202 | 6.0 | 14.0 | 0.00 | 0.56 | 0.47 | 83 | 1005.7 |
| 20260506082533 | 60 | 227 | 9.0 | 13.0 | 0.00 | 0.56 | 0.47 | 82 | 1005.7 |
| 20260506082032 | 61 | 221 | 7.0 | 13.0 | 0.00 | 0.56 | 0.47 | 82 | 1005.9 |
| 20260506081531 | 62 | 248 | 7.0 | 14.0 | 0.00 | 0.56 | 0.47 | 83 | 1005.9 |
| 20260506081031 | 62 | 204 | 7.0 | 10.0 | 0.00 | 0.56 | 0.47 | 84 | 1005.8 |
| 20260506080529 | 61 | 200 | 5.0 | 10.0 | 0.00 | 0.56 | 0.47 | 86 | 1005.9 |
| 20260506073524 | 58 | 236 | 7.0 | 12.0 | 0.00 | 0.56 | 0.47 | 90 | 1005.8 |
| 20260506073022 | 58 | 219 | 4.0 | 11.0 | 0.00 | 0.56 | 0.47 | 92 | 1005.8 |
| 20260506072524 | 58 | 206 | 8.0 | 11.0 | 0.00 | 0.56 | 0.47 | 92 | 1005.9 |
| 20260506072020 | 58 | 254 | 5.0 | 11.0 | 0.00 | 0.56 | 0.47 | 93 | 1005.9 |
| 20260506071520 | 57 | 219 | 6.0 | 10.0 | 0.00 | 0.56 | 0.47 | 93 | 1005.9 |
| 20260506071019 | 57 | 193 | 6.0 | 9.0 | 0.00 | 0.56 | 0.47 | 93 | 1005.9 |
| 20260506070519 | 57 | 231 | 6.0 | 11.0 | 0.00 | 0.56 | 0.47 | 94 | 1005.7 |
| 20260506062517 | 56 | 242 | 5.0 | 10.0 | 0.00 | 0.56 | 0.47 | 94 | 1005.8 |
| 20260506062017 | 57 | 193 | 5.0 | 8.0 | 0.00 | 0.56 | 0.47 | 94 | 1005.7 |
| 20260506061524 | 57 | 198 | 5.0 | 9.0 | 0.00 | 0.56 | 0.47 | 94 | 1005.7 |
| 20260506061018 | 56 | 196 | 5.0 | 9.0 | 0.00 | 0.56 | 0.47 | 94 | 1005.7 |
| 20260506060517 | 56 | 197 | 4.0 | 7.0 | 0.00 | 0.56 | 0.47 | 95 | 1005.6 |
| 20260506051015 | 54 | 200 | 1.0 | 5.0 | 0.00 | 0.56 | 0.47 | 94 | 1005.5 |
| 20260506050515 | 54 | 201 | 1.0 | 5.0 | 0.00 | 0.56 | 0.47 | 94 | 1005.5 |
| 20260506045013 | 54 | 201 | 2.0 | 4.0 | 0.00 | 0.56 | 0.47 | 95 | 1005.5 |
| 20260506044519 | 54 | 202 | 2.0 | 4.0 | 0.00 | 0.56 | 0.47 | 95 | 1005.7 |
| 20260506044013 | 54 | 203 | 2.0 | 5.0 | 0.00 | 0.56 | 0.47 | 95 | 1005.6 |
| 20260506043515 | 54 | 203 | 1.0 | 4.0 | 0.00 | 0.56 | 0.47 | 94 | 1005.6 |
| 20260506043019 | 54 | 204 | 1.0 | 5.0 | 0.00 | 0.56 | 0.47 | 94 | 1005.6 |
| 20260506042514 | 54 | 204 | 1.0 | 5.0 | 0.00 | 0.56 | 0.47 | 95 | 1005.6 |
| 20260506042013 | 54 | 204 | 1.0 | 4.0 | 0.00 | 0.56 | 0.47 | 95 | 1005.6 |
| 20260506041516 | 54 | 204 | 2.0 | 6.0 | 0.00 | 0.56 | 0.47 | 95 | 1005.6 |
| 20260506041015 | 54 | 203 | 3.0 | 8.0 | 0.00 | 0.56 | 0.47 | 95 | 1005.6 |
| 20260506040514 | 54 | 205 | 3.0 | 8.0 | 0.00 | 0.56 | 0.47 | 95 | 1005.6 |
| 20260506040012 | 54 | 198 | 3.0 | 8.0 | 0.00 | 0.56 | 0.47 | 95 | 1005.6 |
| 20260506035511 | 54 | 194 | 3.0 | 8.0 | 0.00 | 0.56 | 0.47 | 95 | 1005.6 |
| 20260506035013 | 54 | 194 | 4.0 | 8.0 | 0.00 | 0.56 | 0.47 | 95 | 1005.6 |
| 20260506034511 | 54 | 200 | 3.0 | 7.0 | 0.00 | 0.56 | 0.47 | 94 | 1005.6 |
| 20260506034010 | 54 | 198 | 3.0 | 7.0 | 0.00 | 0.56 | 0.47 | 94 | 1005.6 |
| 20260506033509 | 54 | 200 | 3.0 | 8.0 | 0.00 | 0.56 | 0.47 | 94 | 1005.6 |
| 20260506033009 | 54 | 213 | 4.0 | 8.0 | 0.00 | 0.56 | 0.47 | 94 | 1005.6 |
| 20260506032508 | 54 | 215 | 3.0 | 7.0 | 0.00 | 0.56 | 0.47 | 94 | 1005.5 |
| 20260506032007 | 54 | 202 | 3.0 | 7.0 | 0.00 | 0.56 | 0.47 | 94 | 1005.5 |
| 20260506031507 | 55 | 216 | 4.0 | 7.0 | 0.01 | 0.56 | 0.47 | 94 | 1005.6 |
| 20260506031006 | 55 | 205 | 4.0 | 7.0 | 0.02 | 0.56 | 0.47 | 94 | 1005.6 |
| 20260506030506 | 55 | 193 | 3.0 | 7.0 | 0.02 | 0.56 | 0.47 | 95 | 1005.5 |
| 20260506030005 | 55 | 211 | 4.0 | 7.0 | 0.02 | 0.56 | 0.47 | 95 | 1005.6 |
| 20260506025505 | 55 | 209 | 3.0 | 6.0 | 0.02 | 0.56 | 0.47 | 95 | 1005.6 |
| 20260506025004 | 55 | 221 | 3.0 | 6.0 | 0.02 | 0.56 | 0.47 | 95 | 1005.6 |
| 20260506024505 | 55 | 227 | 3.0 | 5.0 | 0.02 | 0.56 | 0.47 | 95 | 1005.7 |
| 20260506024005 | 55 | 227 | 2.0 | 5.0 | 0.02 | 0.56 | 0.47 | 95 | 1005.6 |
| 20260506023504 | 55 | 231 | 3.0 | 5.0 | 0.02 | 0.56 | 0.47 | 95 | 1005.6 |
| 20260506023002 | 55 | 233 | 3.0 | 5.0 | 0.02 | 0.56 | 0.47 | 95 | 1005.6 |
| 20260506022502 | 55 | 234 | 3.0 | 5.0 | 0.02 | 0.56 | 0.47 | 94 | 1005.7 |
| 20260506022002 | 55 | 234 | 2.0 | 6.0 | 0.02 | 0.56 | 0.47 | 94 | 1005.6 |
| 20260506021503 | 55 | 234 | 1.0 | 6.0 | 0.02 | 0.56 | 0.46 | 94 | 1005.6 |
| 20260506021004 | 55 | 202 | 0.0 | 4.0 | 0.00 | 0.55 | 0.45 | 94 | 1005.7 |
| 20260506020505 | 55 | 202 | 1.0 | 4.0 | 0.00 | 0.55 | 0.45 | 94 | 1005.6 |
| 20260506020002 | 55 | 201 | 1.0 | 5.0 | 0.01 | 0.55 | 0.45 | 94 | 1005.6 |
| 20260506015503 | 55 | 201 | 2.0 | 4.0 | 0.01 | 0.55 | 0.45 | 94 | 1005.7 |
| 20260506015003 | 55 | 202 | 1.0 | 3.0 | 0.02 | 0.55 | 0.45 | 94 | 1005.5 |
| 20260506014501 | 55 | 202 | 0.0 | 3.0 | 0.04 | 0.55 | 0.45 | 94 | 1005.5 |
| 20260506014002 | 55 | 203 | 0.0 | 3.0 | 0.06 | 0.55 | 0.45 | 94 | 1005.7 |
| 20260506013600 | 55 | 203 | 1.0 | 2.0 | 0.07 | 0.55 | 0.45 | 94 | 1005.7 |
| 20260506013106 | 55 | 203 | 0.0 | 3.0 | 0.09 | 0.55 | 0.45 | 94 | 1005.8 |
| 20260506012559 | 55 | 203 | 1.0 | 3.0 | 0.12 | 0.55 | 0.45 | 94 | 1005.9 |
| 20260506012101 | 55 | 203 | 0.0 | 3.0 | 0.14 | 0.55 | 0.45 | 94 | 1006.0 |
| 20260506011623 | 55 | 203 | 0.0 | 2.0 | 0.16 | 0.55 | 0.45 | 94 | 1005.9 |
| 20260506011058 | 55 | 203 | 0.0 | 1.0 | 0.20 | 0.55 | 0.45 | 94 | 1005.9 |
| 20260506010558 | 55 | 203 | 0.0 | 1.0 | 0.26 | 0.55 | 0.45 | 94 | 1005.9 |
| 20260506010119 | 55 | 203 | 0.0 | 2.0 | 0.35 | 0.54 | 0.44 | 94 | 1005.9 |
| 20260506005558 | 55 | 203 | 1.0 | 2.0 | 0.42 | 0.54 | 0.44 | 94 | 1006.0 |
| 20260506005101 | 55 | 203 | 1.0 | 2.0 | 0.42 | 0.53 | 0.43 | 94 | 1006.0 |
| 20260506004557 | 55 | 203 | 1.0 | 2.0 | 0.41 | 0.51 | 0.41 | 94 | 1005.9 |
| 20260506004056 | 55 | 203 | 0.0 | 2.0 | 0.39 | 0.50 | 0.39 | 94 | 1006.0 |
| 20260506003556 | 55 | 203 | 0.0 | 0.0 | 0.37 | 0.47 | 0.37 | 94 | 1006.0 |
| 20260506003057 | 55 | 203 | 0.0 | 1.0 | 0.35 | 0.46 | 0.35 | 94 | 1006.0 |
| 20260506002554 | 55 | 203 | 0.0 | 2.0 | 0.33 | 0.43 | 0.33 | 94 | 1006.1 |
| 20260506002053 | 55 | 203 | 0.0 | 2.0 | 0.31 | 0.41 | 0.31 | 94 | 1006.2 |
| 20260506001556 | 55 | 203 | 0.0 | 3.0 | 0.28 | 0.39 | 0.28 | 94 | 1006.3 |
| 20260506001051 | 55 | 203 | 1.0 | 3.0 | 0.24 | 0.35 | 0.24 | 94 | 1006.3 |
| 20260506000550 | 56 | 203 | 0.0 | 6.0 | 0.19 | 0.28 | 0.19 | 94 | 1006.4 |
| 20260506000057 | 57 | 203 | 2.0 | 6.0 | 0.09 | 0.20 | 0.09 | 94 | 1006.5 |
| 20260505235549 | 57 | 224 | 3.0 | 7.0 | 0.02 | 0.13 | 0.02 | 94 | 1006.5 |
| 20260505235049 | 57 | 247 | 2.0 | 4.0 | 0.01 | 0.11 | 0.01 | 94 | 1006.4 |
| 20260505234549 | 57 | 248 | 2.0 | 3.0 | 0.00 | 0.10 | 0.00 | 94 | 1006.5 |
| 20260505234047 | 57 | 248 | 1.0 | 3.0 | 0.00 | 0.10 | 0.00 | 94 | 1006.5 |
| 20260505233547 | 57 | 248 | 2.0 | 4.0 | 0.00 | 0.10 | 0.00 | 94 | 1006.6 |
| 20260505233047 | 57 | 248 | 2.0 | 4.0 | 0.00 | 0.10 | 0.00 | 94 | 1006.5 |
| 20260505232548 | 57 | 250 | 1.0 | 4.0 | 0.00 | 0.10 | 0.00 | 94 | 1006.5 |
| 20260505232046 | 57 | 250 | 2.0 | 4.0 | 0.00 | 0.10 | 0.00 | 94 | 1006.5 |
| 20260505231546 | 57 | 251 | 1.0 | 4.0 | 0.00 | 0.10 | 0.00 | 94 | 1006.5 |
| 20260505231045 | 57 | 251 | 2.0 | 4.0 | 0.00 | 0.10 | 0.00 | 94 | 1006.5 |
| 20260505230546 | 57 | 251 | 1.0 | 3.0 | 0.00 | 0.10 | 0.00 | 94 | 1006.6 |
| 20260505230045 | 57 | 251 | 1.0 | 3.0 | 0.00 | 0.10 | 0.00 | 94 | 1006.6 |
| 20260505225545 | 57 | 251 | 1.0 | 3.0 | 0.00 | 0.10 | 0.00 | 94 | 1006.6 |
| 20260505225045 | 57 | 251 | 0.0 | 4.0 | 0.00 | 0.10 | 0.00 | 94 | 1006.7 |
| 20260505224544 | 57 | 251 | 1.0 | 4.0 | 0.00 | 0.10 | 0.00 | 94 | 1006.7 |
| 20260505224043 | 57 | 251 | 1.0 | 3.0 | 0.00 | 0.10 | 0.00 | 94 | 1006.7 |
| 20260505223546 | 57 | 251 | 1.0 | 3.0 | 0.00 | 0.10 | 0.00 | 94 | 1006.7 |
| 20260505223042 | 56 | 251 | 0.0 | 2.0 | 0.00 | 0.10 | 0.00 | 94 | 1006.7 |
| 20260505222541 | 56 | 251 | 0.0 | 1.0 | 0.00 | 0.10 | 0.00 | 94 | 1006.8 |
| 20260505222041 | 56 | 251 | 0.0 | 2.0 | 0.00 | 0.10 | 0.00 | 94 | 1006.8 |
| 20260505221546 | 56 | 251 | 0.0 | 2.0 | 0.00 | 0.10 | 0.00 | 94 | 1006.9 |
| 20260505221040 | 56 | 251 | 0.0 | 2.0 | 0.00 | 0.10 | 0.00 | 94 | 1006.9 |
| 20260505220539 | 56 | 251 | 0.0 | 2.0 | 0.00 | 0.10 | 0.00 | 94 | 1006.9 |
| 20260505220053 | 56 | 251 | 0.0 | 2.0 | 0.00 | 0.10 | 0.00 | 94 | 1006.9 |
| 20260505215541 | 56 | 251 | 0.0 | 0.0 | 0.00 | 0.10 | 0.10 | 94 | 1007.0 |
| 20260505215039 | 56 | 251 | 0.0 | 0.0 | 0.00 | 0.10 | 0.10 | 94 | 1007.0 |
| 20260505214546 | 56 | 251 | 0.0 | 0.0 | 0.00 | 0.10 | 0.10 | 94 | 1006.9 |
| 20260505214039 | 56 | 251 | 0.0 | 0.0 | 0.00 | 0.10 | 0.10 | 94 | 1007.1 |
| 20260505213539 | 56 | 251 | 0.0 | 0.0 | 0.00 | 0.10 | 0.10 | 94 | 1007.1 |
| 20260505213040 | 57 | 251 | 0.0 | 0.0 | 0.00 | 0.10 | 0.10 | 94 | 1007.1 |
| 20260505212538 | 57 | 251 | 0.0 | 0.0 | 0.00 | 0.10 | 0.10 | 93 | 1007.0 |
| 20260505212038 | 57 | 251 | 0.0 | 0.0 | 0.01 | 0.10 | 0.10 | 94 | 1007.1 |
| 20260505211540 | 57 | 251 | 0.0 | 0.0 | 0.01 | 0.10 | 0.10 | 94 | 1007.1 |
| 20260505211037 | 57 | 251 | 0.0 | 0.0 | 0.01 | 0.10 | 0.10 | 94 | 1007.1 |
| 20260505210537 | 57 | 251 | 0.0 | 0.0 | 0.01 | 0.10 | 0.10 | 94 | 1007.1 |
| 20260505210045 | 57 | 251 | 0.0 | 0.0 | 0.01 | 0.10 | 0.10 | 94 | 1007.1 |
| 20260505205537 | 57 | 251 | 0.0 | 0.0 | 0.01 | 0.10 | 0.10 | 93 | 1007.1 |
| 20260505205039 | 57 | 251 | 0.0 | 0.0 | 0.01 | 0.10 | 0.10 | 93 | 1007.2 |
| 20260505204545 | 57 | 251 | 0.0 | 0.0 | 0.01 | 0.10 | 0.10 | 93 | 1007.2 |
| 20260505204039 | 57 | 251 | 0.0 | 0.0 | 0.01 | 0.10 | 0.10 | 93 | 1007.2 |
| 20260505203537 | 57 | 251 | 0.0 | 0.0 | 0.01 | 0.10 | 0.10 | 93 | 1007.2 |
| 20260505203036 | 57 | 251 | 0.0 | 0.0 | 0.01 | 0.10 | 0.10 | 93 | 1007.3 |
| 20260505202536 | 57 | 251 | 0.0 | 0.0 | 0.01 | 0.10 | 0.10 | 93 | 1007.2 |
| 20260505202036 | 57 | 251 | 0.0 | 0.0 | 0.00 | 0.09 | 0.09 | 93 | 1007.2 |
| 20260505201538 | 57 | 251 | 0.0 | 0.0 | 0.00 | 0.09 | 0.09 | 93 | 1007.3 |
| 20260505201036 | 57 | 251 | 0.0 | 0.0 | 0.00 | 0.09 | 0.09 | 93 | 1007.2 |
| 20260505200536 | 57 | 251 | 0.0 | 0.0 | 0.00 | 0.09 | 0.09 | 93 | 1007.2 |
| 20260505200036 | 57 | 251 | 0.0 | 0.0 | 0.00 | 0.09 | 0.09 | 93 | 1007.2 |
| 20260505195536 | 57 | 251 | 0.0 | 0.0 | 0.00 | 0.09 | 0.09 | 93 | 1007.1 |
| 20260505195036 | 57 | 251 | 0.0 | 0.0 | 0.00 | 0.09 | 0.09 | 93 | 1007.1 |
| 20260505194535 | 57 | 251 | 0.0 | 0.0 | 0.00 | 0.09 | 0.09 | 93 | 1007.1 |
| 20260505194036 | 57 | 251 | 0.0 | 0.0 | 0.00 | 0.09 | 0.09 | 93 | 1007.2 |
| 20260505193535 | 57 | 251 | 0.0 | 0.0 | 0.01 | 0.09 | 0.09 | 93 | 1007.1 |
| 20260505193041 | 57 | 251 | 0.0 | 0.0 | 0.01 | 0.09 | 0.09 | 93 | 1007.1 |
| 20260505192534 | 58 | 251 | 0.0 | 0.0 | 0.01 | 0.09 | 0.09 | 93 | 1007.1 |
| 20260505192034 | 58 | 251 | 0.0 | 0.0 | 0.01 | 0.09 | 0.09 | 93 | 1007.2 |
| 20260505191535 | 58 | 251 | 0.0 | 0.0 | 0.01 | 0.09 | 0.09 | 93 | 1007.0 |
| 20260505191037 | 58 | 251 | 0.0 | 0.0 | 0.02 | 0.09 | 0.09 | 93 | 1007.0 |
| 20260505190538 | 58 | 251 | 0.0 | 1.0 | 0.02 | 0.09 | 0.09 | 93 | 1007.0 |
| 20260505190038 | 58 | 251 | 0.0 | 3.0 | 0.02 | 0.09 | 0.09 | 93 | 1006.9 |
| 20260505185534 | 58 | 251 | 0.0 | 3.0 | 0.02 | 0.09 | 0.09 | 93 | 1006.9 |
| 20260505185036 | 58 | 251 | 0.0 | 2.0 | 0.02 | 0.09 | 0.09 | 92 | 1007.0 |
| 20260505184533 | 58 | 251 | 1.0 | 2.0 | 0.02 | 0.09 | 0.09 | 92 | 1006.8 |
| 20260505184033 | 58 | 251 | 0.0 | 2.0 | 0.03 | 0.09 | 0.09 | 92 | 1007.0 |
| 20260505183536 | 59 | 251 | 0.0 | 2.0 | 0.02 | 0.09 | 0.09 | 92 | 1007.0 |
| 20260505183046 | 59 | 251 | 0.0 | 2.0 | 0.02 | 0.09 | 0.09 | 92 | 1007.0 |
| 20260505182533 | 59 | 251 | 0.0 | 2.0 | 0.02 | 0.09 | 0.09 | 92 | 1007.0 |
| 20260505182032 | 59 | 251 | 0.0 | 1.0 | 0.02 | 0.09 | 0.09 | 92 | 1007.1 |
| 20260505181532 | 59 | 251 | 0.0 | 0.0 | 0.03 | 0.09 | 0.09 | 92 | 1007.1 |
| 20260505181032 | 59 | 251 | 0.0 | 1.0 | 0.02 | 0.08 | 0.08 | 91 | 1007.1 |
| 20260505180533 | 59 | 251 | 0.0 | 1.0 | 0.02 | 0.08 | 0.08 | 91 | 1007.1 |
| 20260505180032 | 59 | 251 | 0.0 | 2.0 | 0.02 | 0.08 | 0.08 | 91 | 1007.1 |
| 20260505175534 | 59 | 251 | 0.0 | 2.0 | 0.02 | 0.07 | 0.07 | 91 | 1007.1 |
| 20260505175032 | 59 | 251 | 0.0 | 2.0 | 0.02 | 0.07 | 0.07 | 90 | 1007.1 |
| 20260505174532 | 59 | 251 | 0.0 | 0.0 | 0.02 | 0.07 | 0.07 | 90 | 1007.1 |
| 20260505174032 | 59 | 251 | 0.0 | 2.0 | 0.02 | 0.06 | 0.06 | 90 | 1007.1 |
| 20260505173531 | 59 | 251 | 0.0 | 3.0 | 0.02 | 0.06 | 0.06 | 90 | 1007.1 |
| 20260505173031 | 59 | 251 | 1.0 | 3.0 | 0.02 | 0.06 | 0.06 | 90 | 1007.1 |
| 20260505172530 | 59 | 251 | 0.0 | 3.0 | 0.02 | 0.06 | 0.06 | 90 | 1007.2 |
| 20260505172031 | 59 | 251 | 0.0 | 3.0 | 0.02 | 0.06 | 0.06 | 90 | 1007.1 |
| 20260505171530 | 59 | 251 | 0.0 | 1.0 | 0.02 | 0.06 | 0.06 | 90 | 1007.1 |
| 20260505171030 | 60 | 251 | 0.0 | 1.0 | 0.02 | 0.06 | 0.06 | 90 | 1007.2 |
| 20260505170529 | 60 | 251 | 0.0 | 1.0 | 0.02 | 0.06 | 0.06 | 90 | 1007.2 |
| 20260505170031 | 60 | 251 | 0.0 | 2.0 | 0.02 | 0.06 | 0.06 | 90 | 1007.2 |
| 20260505165529 | 60 | 251 | 1.0 | 2.0 | 0.01 | 0.05 | 0.05 | 90 | 1007.2 |
| 20260505165029 | 60 | 251 | 0.0 | 1.0 | 0.02 | 0.05 | 0.05 | 90 | 1007.2 |
| 20260505164545 | 60 | 251 | 0.0 | 2.0 | 0.02 | 0.05 | 0.05 | 90 | 1007.2 |
| 20260505164029 | 59 | 251 | 0.0 | 2.0 | 0.02 | 0.05 | 0.05 | 90 | 1007.2 |
| 20260505163530 | 60 | 251 | 0.0 | 1.0 | 0.02 | 0.05 | 0.05 | 90 | 1007.3 |
| 20260505163029 | 60 | 251 | 0.0 | 3.0 | 0.02 | 0.04 | 0.04 | 90 | 1007.3 |
| 20260505162528 | 60 | 251 | 0.0 | 4.0 | 0.02 | 0.04 | 0.04 | 90 | 1007.3 |
| 20260505162028 | 59 | 251 | 1.0 | 4.0 | 0.03 | 0.04 | 0.04 | 90 | 1007.3 |
| 20260505161530 | 60 | 251 | 0.0 | 2.0 | 0.03 | 0.04 | 0.04 | 90 | 1007.4 |
| 20260505161029 | 60 | 251 | 0.0 | 4.0 | 0.03 | 0.04 | 0.04 | 90 | 1007.3 |
| 20260505160528 | 60 | 250 | 0.0 | 4.0 | 0.03 | 0.04 | 0.04 | 90 | 1007.4 |
| 20260505153027 | 60 | 234 | 8.0 | 13.0 | 0.02 | 0.02 | 0.02 | 88 | 1007.4 |
| 20260505152526 | 60 | 245 | 8.0 | 16.0 | 0.02 | 0.02 | 0.02 | 87 | 1007.3 |
| 20260505152026 | 60 | 247 | 10.0 | 17.0 | 0.01 | 0.01 | 0.01 | 86 | 1007.2 |
| 20260505151526 | 61 | 205 | 11.0 | 17.0 | 0.01 | 0.01 | 0.01 | 86 | 1007.3 |
| 20260505151026 | 61 | 243 | 11.0 | 18.0 | 0.01 | 0.01 | 0.01 | 84 | 1007.2 |
| 20260505150526 | 62 | 237 | 9.0 | 20.0 | 0.01 | 0.01 | 0.01 | 81 | 1007.2 |
| 20260505140521 | 70 | 167 | 1.0 | 5.0 | 0.00 | 0.00 | 0.00 | 56 | 1006.8 |
| 20260505125016 | 70 | 152 | 0.0 | 3.0 | 0.00 | 0.00 | 0.00 | 59 | 1007.6 |
| 20260505124523 | 69 | 152 | 1.0 | 3.0 | 0.00 | 0.00 | 0.00 | 57 | 1007.6 |
| 20260505124015 | 70 | 152 | 1.0 | 3.0 | 0.00 | 0.00 | 0.00 | 57 | 1007.6 |
| 20260505123515 | 70 | 152 | 1.0 | 5.0 | 0.00 | 0.00 | 0.00 | 56 | 1007.6 |
| 20260505123014 | 71 | 152 | 2.0 | 5.0 | 0.00 | 0.00 | 0.00 | 54 | 1007.7 |
| 20260505122514 | 71 | 151 | 0.0 | 2.0 | 0.00 | 0.00 | 0.00 | 53 | 1007.8 |
| 20260505122017 | 71 | 151 | 1.0 | 2.0 | 0.00 | 0.00 | 0.00 | 53 | 1007.7 |
| 20260505121515 | 71 | 151 | 1.0 | 2.0 | 0.00 | 0.00 | 0.00 | 54 | 1007.8 |
| 20260505121015 | 71 | 151 | 0.0 | 3.0 | 0.00 | 0.00 | 0.00 | 56 | 1007.9 |
| 20260505120513 | 70 | 151 | 1.0 | 6.0 | 0.00 | 0.00 | 0.00 | 52 | 1007.9 |
| 20260505120012 | 71 | 151 | 1.0 | 3.0 | 0.00 | 0.00 | 0.00 | 54 | 1007.9 |
| 20260505115511 | 71 | 151 | 1.0 | 5.0 | 0.00 | 0.00 | 0.00 | 54 | 1008.0 |
| 20260505115012 | 71 | 151 | 2.0 | 5.0 | 0.00 | 0.00 | 0.00 | 53 | 1008.0 |
| 20260505114510 | 72 | 153 | 0.0 | 3.0 | 0.00 | 0.00 | 0.00 | 54 | 1008.1 |
| 20260505114009 | 71 | 153 | 1.0 | 5.0 | 0.00 | 0.00 | 0.00 | 56 | 1008.2 |
| 20260505113508 | 71 | 153 | 2.0 | 6.0 | 0.00 | 0.00 | 0.00 | 54 | 1008.2 |
| 20260505113007 | 71 | 150 | 2.0 | 6.0 | 0.00 | 0.00 | 0.00 | 55 | 1008.3 |